Corpus Christi, TX

9:15 AM CDT on September 27, 2016 (GMT -0500)
Corpus Christi International

Weather History for KCRP - January, 2014

Change the Weather History Date:

Friday, January 24, 2014

  Actual Average Record
Temperature  
Mean Temperature 36 °F 57 °F  
Max Temperature 40 °F 67 °F 87 °F (1972)
Min Temperature 31 °F 48 °F 18 °F (1963)
Degree Days  
Heating Degree Days 29 8  
Month to date heating degree days 229 215  
Since 1 July heating degree days 685 566  
Cooling Degree Days 0 1  
Month to date cooling degree days 2 24  
Year to date cooling degree days 2 24  
Moisture  
Dew Point 29 °F    
Average Humidity 78    
Maximum Humidity 92    
Minimum Humidity 64    
Precipitation  
Precipitation 0.02 in 0.05 in 1.36 in (2007)
Month to date precipitation 0.67 1.20  
Year to date precipitation 0.67 1.20  
Snow  
Snow 0.00 in - - ()
Month to date snowfall T  
Since 1 July snowfall T  
Snow Depth 0.00 in    
Sea Level Pressure  
Sea Level Pressure 30.59 in    
Wind  
Wind Speed 15 mph (NNW)    
Max Wind Speed 32 mph    
Max Gust Speed 40 mph    
Visibility 8 miles    
Events Snow    
T = Trace of Precipitation, MM = Missing Value Source: NWS Daily Summary

Daily Weather History Graph

Daily Weather History Graph

Search for Another Location

Airport or City:

Trip Planner

Search our weather history database for the weather conditions in past years. The results will help you decide how hot, cold, wet, or windy it might be!

Date:

Astronomy

Jan. 24, 2014 Rise Set
Actual Time 7:20 AM CST 6:04 PM CST
Civil Twilight 6:55 AM CST 6:29 PM CST
Nautical Twilight 6:27 AM CST 6:57 PM CST
Astronomical Twilight 5:59 AM CST 7:25 PM CST
Moon 12:56 AM CST (1/24) 12:18 PM CST (1/24)
Length of Visible Light 11h 33m
Length of Day
10h 44m
Last Quarter, 44% of the Moon is Illuminated
Jan 24
Last Quarter
Jan 30
New
Feb 6
First Quarter
Feb 14
Full
Feb 22
Last Quarter

Hourly Weather History & Observations

Time (CST) Temp. Windchill Dew Point Humidity Pressure Visibility Wind Dir Wind Speed Gust Speed Precip Events Conditions
12:51 AM 39.0 °F 28.3 °F 33.1 °F 79% 30.57 in 7.0 mi NNE 24.2 mph 36.8 mph 0.00 in   Light Drizzle
1:01 AM 39.2 °F 29.8 °F 33.8 °F 81% 30.58 in 5.0 mi NNE 18.4 mph 28.8 mph 0.00 in   Light Drizzle
1:46 AM 37.4 °F 26.9 °F 33.8 °F 87% 30.59 in 4.0 mi North 20.7 mph 28.8 mph 0.00 in   Light Drizzle
1:51 AM 37.9 °F 27.3 °F 35.1 °F 89% 30.60 in 4.0 mi North 21.9 mph 28.8 mph 0.01 in   Light Drizzle
2:51 AM 34.0 °F 21.8 °F 30.9 °F 89% 30.61 in 3.0 mi North 23.0 mph - 0.01 in Snow Light Drizzle
3:51 AM 34.0 °F 21.8 °F 30.9 °F 89% 30.62 in 4.0 mi North 23.0 mph 26.5 mph 0.00 in Snow Light Drizzle
4:49 AM 33.8 °F 21.6 °F 30.2 °F 87% 30.62 in 7.0 mi North 23.0 mph 31.1 mph 0.00 in   Overcast
4:51 AM 33.1 °F 20.9 °F 30.0 °F 89% 30.63 in 7.0 mi North 21.9 mph 31.1 mph 0.00 in   Overcast
5:51 AM 33.1 °F 20.9 °F 28.9 °F 85% 30.64 in 9.0 mi North 21.9 mph 28.8 mph N/A   Overcast
6:51 AM 32.0 °F 19.5 °F 28.9 °F 88% 30.66 in 10.0 mi NNW 21.9 mph - N/A   Overcast
7:04 AM 32.0 °F 20.1 °F 28.4 °F 87% 30.67 in 6.0 mi NNW 19.6 mph 25.3 mph 0.00 in   Light Freezing Drizzle
7:30 AM 30.2 °F 18.1 °F 28.4 °F 93% 30.66 in 3.0 mi NNW 18.4 mph - 0.00 in   Light Freezing Drizzle
7:51 AM 30.9 °F 19.1 °F 28.9 °F 92% 30.68 in 4.0 mi NNW 18.4 mph - 0.00 in   Light Freezing Drizzle
8:51 AM 30.9 °F 18.7 °F 28.0 °F 89% 30.69 in 4.0 mi North 19.6 mph - 0.00 in   Light Freezing Drizzle
9:06 AM 32.0 °F 19.8 °F 28.4 °F 87% 30.69 in 6.0 mi North 20.7 mph 26.5 mph 0.00 in   Overcast
9:51 AM 30.9 °F 19.8 °F 27.0 °F 85% 30.71 in 10.0 mi North 16.1 mph - 0.00 in   Overcast
10:51 AM 32.0 °F 21.2 °F 28.0 °F 85% 30.70 in 10.0 mi NNW 16.1 mph - N/A   Overcast
11:51 AM 33.1 °F 23.4 °F 27.0 °F 78% 30.67 in 10.0 mi North 13.8 mph - N/A   Overcast
12:03 PM 33.8 °F 23.2 °F 26.6 °F 75% 30.66 in 10.0 mi NNW 17.3 mph - N/A   Overcast
12:51 PM 34.0 °F 24.6 °F 27.0 °F 75% 30.62 in 10.0 mi North 13.8 mph - N/A   Overcast
1:51 PM 36.0 °F 26.7 °F 28.0 °F 73% 30.57 in 10.0 mi NNW 15.0 mph - N/A   Overcast
2:51 PM 36.0 °F 27.5 °F 27.0 °F 70% 30.56 in 10.0 mi NNW 12.7 mph - N/A   Overcast
3:51 PM 37.0 °F 28.9 °F 28.0 °F 70% 30.53 in 10.0 mi NNW 12.7 mph - N/A   Overcast
4:51 PM 37.0 °F 31.0 °F 27.0 °F 67% 30.52 in 10.0 mi North 8.1 mph - N/A   Overcast
5:51 PM 37.0 °F 30.4 °F 27.0 °F 67% 30.51 in 10.0 mi North 9.2 mph - N/A   Overcast
6:14 PM 37.4 °F 30.3 °F 28.4 °F 70% 30.51 in 10.0 mi North 10.4 mph - N/A   Overcast
6:51 PM 37.0 °F 30.4 °F 28.0 °F 70% 30.50 in 10.0 mi North 9.2 mph - N/A   Overcast
7:51 PM 36.0 °F 29.0 °F 28.0 °F 73% 30.50 in 10.0 mi North 9.2 mph - N/A   Overcast
8:51 PM 36.0 °F 32.1 °F 28.0 °F 73% 30.48 in 10.0 mi North 4.6 mph - N/A   Overcast
9:51 PM 36.0 °F 32.1 °F 28.0 °F 73% 30.47 in 10.0 mi WNW 4.6 mph - N/A   Overcast
10:51 PM 37.0 °F 32.4 °F 28.0 °F 70% 30.46 in 10.0 mi NW 5.8 mph - N/A   Overcast
11:51 PM 36.0 °F 32.1 °F 28.0 °F 73% 30.43 in 10.0 mi West 4.6 mph - N/A   Overcast